TimeEST,TemperatureF,Dew PointF,Humidity,Sea Level PressureIn,VisibilityMPH,Wind Direction,Wind SpeedMPH,Gust SpeedMPH,PrecipitationIn,Events,Conditions,WindDirDegrees,DateUTC
12:15 AM,36.1,34.3,93,29.68,4.0,Calm,Calm,-,N/A,Rain,Light Rain,0,2012-12-18 05:15:00
12:35 AM,36.3,34.7,94,29.68,3.0,NNW,4.6,-,N/A,Rain,Light Rain,340,2012-12-18 05:35:00
12:55 AM,36.5,34.9,94,29.68,3.0,NNW,6.9,-,N/A,Rain,Light Rain,330,2012-12-18 05:55:00
1:15 AM,36.7,35.1,94,29.68,3.0,NNW,6.9,-,N/A,,Overcast,330,2012-12-18 06:15:00
1:35 AM,36.9,34.9,93,29.69,3.0,NNW,6.9,-,N/A,Rain,Light Rain,330,2012-12-18 06:35:00
1:55 AM,36.7,35.1,94,29.69,3.0,NW,9.2,-,N/A,Snow,Light Snow,310,2012-12-18 06:55:00
2:15 AM,36.5,35.1,95,29.70,2.5,NW,8.1,-,N/A,Rain,Light Rain,320,2012-12-18 07:15:00
2:35 AM,36.5,35.1,95,29.71,4.0,NW,6.9,-,N/A,Rain,Light Rain,320,2012-12-18 07:35:00
2:55 AM,36.5,35.1,95,29.71,4.0,NW,9.2,-,N/A,,Overcast,320,2012-12-18 07:55:00
3:15 AM,36.5,34.9,94,29.72,5.0,NW,8.1,-,N/A,,Overcast,320,2012-12-18 08:15:00
3:35 AM,36.1,34.3,93,29.72,7.0,NNW,6.9,-,N/A,,Overcast,330,2012-12-18 08:35:00
3:55 AM,36.0,34.3,94,29.72,2.5,NW,5.8,-,N/A,,Overcast,320,2012-12-18 08:55:00
4:15 AM,35.8,34.2,94,29.73,3.0,WNW,6.9,-,N/A,,Overcast,300,2012-12-18 09:15:00
4:35 AM,35.8,34.3,94,29.73,4.0,WNW,6.9,-,N/A,,Overcast,290,2012-12-18 09:35:00
4:55 AM,35.8,34.3,94,29.74,5.0,WNW,9.2,-,N/A,,Overcast,290,2012-12-18 09:55:00
5:15 AM,35.6,34.2,94,29.74,5.0,WNW,9.2,-,N/A,,Overcast,290,2012-12-18 10:15:00
5:35 AM,35.6,34.2,94,29.75,4.0,WNW,10.4,-,N/A,,Overcast,290,2012-12-18 10:35:00
5:55 AM,35.6,34.0,94,29.75,3.0,WNW,9.2,-,N/A,,Overcast,290,2012-12-18 10:55:00
6:15 AM,35.2,33.6,94,29.76,2.5,West,8.1,-,N/A,Snow,Light Snow,280,2012-12-18 11:15:00
6:35 AM,35.4,33.8,94,29.77,2.0,West,10.4,-,N/A,Snow,Light Snow,280,2012-12-18 11:35:00
6:55 AM,35.2,33.8,94,29.78,3.0,West,8.1,-,N/A,,Overcast,270,2012-12-18 11:55:00
7:15 AM,35.2,33.8,94,29.78,3.0,West,10.4,-,N/A,,Overcast,270,2012-12-18 12:15:00
7:35 AM,35.1,33.8,95,29.79,3.0,West,8.1,-,N/A,,Overcast,270,2012-12-18 12:35:00
7:55 AM,35.1,33.8,95,29.80,2.5,West,6.9,-,N/A,Snow,Light Snow,270,2012-12-18 12:55:00
8:15 AM,35.1,33.8,95,29.80,1.5,West,5.8,-,N/A,Snow,Light Snow,260,2012-12-18 13:15:00
8:35 AM,35.1,33.8,95,29.81,1.8,WSW,6.9,-,N/A,,Overcast,250,2012-12-18 13:35:00
8:55 AM,35.2,33.8,94,29.82,2.5,West,6.9,-,N/A,,Overcast,260,2012-12-18 13:55:00
9:15 AM,35.2,33.8,94,29.82,2.5,WSW,8.1,-,N/A,,Overcast,250,2012-12-18 14:15:00
9:35 AM,35.6,33.8,93,29.83,1.5,West,10.4,-,N/A,,Overcast,260,2012-12-18 14:35:00
9:55 AM,35.6,33.1,91,29.82,2.0,West,9.2,-,N/A,,Overcast,260,2012-12-18 14:55:00
10:15 AM,35.8,31.6,85,29.82,3.0,WSW,8.1,-,N/A,,Haze,240,2012-12-18 15:15:00
10:55 AM,35.8,30.9,82,29.83,5.0,SW,12.7,-,N/A,,Haze,220,2012-12-18 15:55:00
11:15 AM,36.0,31.1,82,29.83,4.0,SW,12.7,-,N/A,,Haze,220,2012-12-18 16:15:00
11:35 AM,36.1,31.1,82,29.82,4.0,SW,11.5,-,N/A,,Haze,220,2012-12-18 16:35:00
11:55 AM,36.5,31.1,81,29.83,10.0,SSW,11.5,16.1,N/A,,Overcast,210,2012-12-18 16:55:00
12:15 PM,36.7,31.3,81,29.83,10.0,SW,11.5,-,N/A,,Overcast,230,2012-12-18 17:15:00
12:35 PM,36.9,31.3,80,29.82,5.0,SSW,10.4,-,N/A,,Haze,210,2012-12-18 17:35:00
12:55 PM,37.6,31.8,80,29.81,4.0,SW,15.0,-,N/A,,Haze,220,2012-12-18 17:55:00
1:15 PM,38.3,32.2,79,29.80,7.0,SSW,10.4,-,N/A,,Overcast,200,2012-12-18 18:15:00
1:35 PM,38.7,32.0,77,29.78,7.0,SSW,12.7,16.1,N/A,,Overcast,200,2012-12-18 18:35:00
1:55 PM,38.5,32.0,78,29.77,1.5,South,11.5,-,N/A,,Unknown,190,2012-12-18 18:55:00
2:15 PM,38.5,32.5,79,29.76,3.0,South,13.8,-,N/A,,Unknown,180,2012-12-18 19:15:00
2:35 PM,38.5,32.2,78,29.75,3.0,South,13.8,-,N/A,,Haze,190,2012-12-18 19:35:00
2:55 PM,38.7,32.5,79,29.75,10.0,South,17.3,23.0,N/A,,Overcast,190,2012-12-18 19:55:00
3:15 PM,38.5,32.7,80,29.73,7.0,South,16.1,21.9,N/A,,Overcast,190,2012-12-18 20:15:00
3:35 PM,38.5,32.7,80,29.74,5.0,South,15.0,-,N/A,,Haze,180,2012-12-18 20:35:00
3:55 PM,38.5,32.7,80,29.72,4.0,South,12.7,21.9,N/A,,Haze,170,2012-12-18 20:55:00
4:15 PM,38.3,33.1,81,29.72,4.0,South,13.8,-,N/A,,Haze,170,2012-12-18 21:15:00
4:35 PM,38.3,33.1,81,29.68,2.5,SSE,18.4,-,N/A,,Haze,160,2012-12-18 21:35:00
4:55 PM,37.9,33.1,83,29.67,4.0,SSE,13.8,-,N/A,,Haze,160,2012-12-18 21:55:00
5:15 PM,37.6,32.9,83,29.67,2.0,SSE,16.1,-,N/A,,Haze,160,2012-12-18 22:15:00
5:35 PM,37.6,32.9,83,29.68,2.5,South,11.5,-,N/A,Snow,Light Snow,170,2012-12-18 22:35:00
5:55 PM,37.6,32.9,83,29.70,5.0,South,10.4,-,N/A,Snow,Light Snow,190,2012-12-18 22:55:00
6:15 PM,37.2,32.9,84,29.69,7.0,South,10.4,-,N/A,,Scattered Clouds,170,2012-12-18 23:15:00
6:35 PM,37.0,32.9,85,29.71,5.0,South,4.6,-,N/A,Snow,Light Snow,190,2012-12-18 23:35:00
6:55 PM,36.5,32.2,84,29.71,7.0,South,5.8,-,N/A,Snow,Light Snow,180,2012-12-18 23:55:00
7:15 PM,35.8,32.0,86,29.72,7.0,South,6.9,-,N/A,,Clear,180,2012-12-19 00:15:00
7:35 PM,35.4,32.2,88,29.71,7.0,South,10.4,-,N/A,,Scattered Clouds,180,2012-12-19 00:35:00
7:55 PM,36.7,32.9,86,29.71,4.0,South,9.2,-,N/A,Snow,Light Snow,180,2012-12-19 00:55:00
8:15 PM,37.0,33.1,86,29.71,4.0,South,10.4,-,N/A,Snow,Light Snow,180,2012-12-19 01:15:00
8:55 PM,37.8,33.6,85,29.70,7.0,South,13.8,-,N/A,,Overcast,190,2012-12-19 01:55:00
9:15 PM,38.1,33.8,84,29.70,7.0,South,11.5,-,N/A,,Overcast,190,2012-12-19 02:15:00
9:35 PM,38.5,33.8,83,29.70,10.0,SSW,11.5,-,N/A,,Overcast,200,2012-12-19 02:35:00
9:55 PM,38.8,33.8,82,29.69,7.0,SSW,12.7,-,N/A,,Overcast,210,2012-12-19 02:55:00
10:15 PM,39.2,34.0,82,29.70,4.0,SSW,13.8,-,N/A,,Haze,210,2012-12-19 03:15:00
10:55 PM,39.6,34.2,81,29.70,4.0,SW,15.0,18.4,N/A,,Unknown,230,2012-12-19 03:55:00
11:15 PM,40.1,34.0,79,29.71,10.0,WSW,13.8,-,N/A,,Clear,240,2012-12-19 04:15:00
11:55 PM,40.6,34.7,79,29.72,7.0,WSW,15.0,20.7,N/A,,Unknown,250,2012-12-19 04:55:00